Theta_e
320 323 328 330 330 330 331 331 331 330 330 329 327 326 325 325 325 327 328 329 328 328 325 325 325 324 322 323 325 324 323 321 320 322 321 322 319 319 318 316 315 312 311
316 319 320 324 329 330 331 331 331 331 331 330 329 328 327 326 326 327 326 326 328 329 328 327 327 324 324 326 327 325 324 323 323 321 322 321 319 318 318 316 312 310 310
315 315 316 319 321 327 330 330 331 331 331 330 330 330 329 328 327 327 327 326 326 327 328 327 327 325 325 327 327 327 325 323 324 322 321 320 316 316 316 314 311 309 308
315 315 314 315 317 319 324 328 330 330 330 330 330 330 329 329 328 328 328 327 327 327 327 326 326 326 326 327 326 325 322 324 323 321 320 318 317 317 315 313 310 307 304
315 315 315 315 314 315 319 321 325 327 328 328 329 330 329 329 329 328 328 328 327 326 326 326 326 326 326 326 325 323 324 323 320 319 318 316 316 314 313 311 308 304 305
314 315 315 315 315 313 314 316 320 324 327 328 329 329 329 329 328 328 328 328 327 327 326 326 326 326 326 325 324 323 322 321 319 317 316 315 314 313 312 308 304 304 304
314 314 315 315 315 315 314 312 313 318 322 326 327 327 327 328 328 328 328 327 328 327 326 326 326 326 325 324 324 322 320 320 318 316 316 313 314 313 308 305 304 303 303
313 314 314 315 315 315 314 313 312 312 315 320 324 325 327 327 327 326 326 327 329 326 326 326 325 326 326 324 323 321 319 317 315 314 314 313 309 306 306 304 303 302 301
308 313 314 313 314 314 314 313 313 311 311 315 319 322 324 326 325 326 326 326 327 329 325 325 325 325 324 323 321 318 316 315 314 314 311 307 306 307 305 303 302 300 299
305 308 313 313 313 312 312 313 313 311 310 311 314 318 321 323 324 325 325 324 323 322 324 324 324 324 322 321 319 316 314 314 313 310 306 306 307 306 302 301 300 299 298
304 305 306 311 312 312 313 313 312 311 309 309 310 314 322 321 322 322 323 322 322 322 322 322 321 321 320 318 316 315 314 312 309 306 306 306 304 303 300 299 299 298 297
303 306 306 306 308 311 312 312 311 311 309 308 309 312 317 320 322 320 320 321 321 321 321 320 319 318 317 315 313 312 310 308 305 305 304 303 301 300 299 299 297 296 296
301 304 306 306 306 308 311 311 309 309 308 308 308 309 313 318 319 319 319 320 320 320 318 318 316 315 314 312 311 309 306 305 305 304 304 302 301 298 296 296 297 296 295
295 300 302 304 305 305 307 308 306 306 307 306 307 307 310 315 317 316 318 318 317 317 315 313 312 311 309 308 306 305 304 304 304 303 302 300 297 296 295 295 293 292 291
289 292 297 300 301 302 303 304 303 304 303 303 305 307 310 314 315 315 315 315 314 313 312 310 306 304 303 302 301 301 301 301 301 300 298 297 295 295 294 291 288 287 287
288 289 290 293 296 298 299 301 302 302 301 301 302 303 306 309 311 314 314 313 312 311 306 303 301 301 300 300 300 299 298 298 298 297 297 296 295 292 289 287 286 286 285
286 288 289 290 292 293 295 296 297 299 300 299 300 301 302 305 307 309 311 312 310 304 301 300 300 299 299 299 299 300 299 298 297 296 295 294 290 288 287 286 285 285 285
284 285 286 289 291 292 293 294 294 294 297 297 298 298 299 302 303 304 304 303 301 299 299 299 299 299 298 299 298 299 300 298 296 295 292 288 287 286 286 285 285 285 284
282 283 285 286 289 290 291 292 293 293 295 294 295 296 297 298 299 300 300 300 300 299 297 297 298 299 300 300 299 298 297 296 294 290 287 286 286 285 285 285 284 284 284
281 282 283 284 285 287 289 290 291 292 292 294 294 295 296 297 297 297 298 298 298 298 298 296 296 296 297 300 299 297 296 293 288 287 286 285 285 285 285 284 284 283 283
278 279 280 281 283 284 284 285 287 288 290 291 292 293 294 295 296 296 296 295 294 295 296 295 295 296 296 298 296 294 292 288 286 286 285 284 285 287 285 283 283 283 282
278 277 278 279 280 281 281 282 283 284 285 286 288 289 289 290 291 292 292 292 292 292 293 294 294 293 293 294 293 290 287 286 285 284 284 287 289 286 283 283 282 282 282
277 277 277 277 278 279 279 279 280 280 281 282 283 284 285 287 288 289 290 290 290 290 291 291 291 291 291 290 289 286 285 285 284 286 290 290 287 283 283 282 282 281 281
273 274 276 276 277 277 277 276 277 278 278 278 279 280 281 282 283 284 285 286 287 288 289 289 289 289 289 288 285 284 283 283 287 290 290 286 283 282 282 281 281 281 280
271 272 271 272 273 274 275 275 275 275 276 277 277 277 278 278 279 280 281 282 283 284 285 286 286 286 285 283 283 282 284 288 289 289 287 282 281 281 281 281 280 280 279
269 269 269 270 270 271 270 271 272 273 273 274 275 275 276 276 277 277 278 278 279 280 281 282 283 282 281 281 282 284 286 287 288 287 282 280 281 282 280 280 279 279 278
Wind_Speed
34 39 47 52 52 54 57 58 58 58 56 55 55 54 51 49 47 48 49 50 50 50 51 50 48 46 46 44 40 38 40 38 40 39 33 29 29 25 26 25 27 27 29
20 31 39 44 50 54 57 59 57 58 57 56 56 55 54 53 51 50 50 50 51 52 51 50 49 46 45 44 42 41 41 40 38 37 34 30 25 27 26 25 27 28 31
26 22 27 37 45 51 55 56 55 55 57 56 56 57 57 55 54 53 51 50 49 49 49 49 49 47 43 43 42 42 39 35 35 35 31 31 31 27 27 28 30 30 30
30 31 30 32 38 44 47 52 56 55 55 57 58 58 58 56 55 55 53 49 48 48 48 48 48 43 40 40 39 38 35 35 33 33 32 33 32 28 31 31 31 29 19
38 36 33 30 30 34 42 45 48 53 54 53 54 56 56 56 57 55 54 50 49 49 47 47 46 42 39 38 37 34 34 34 31 36 33 33 32 32 31 32 30 20 15
37 38 35 33 32 30 32 38 44 47 52 53 53 53 55 55 56 55 53 52 49 49 48 47 45 42 38 36 34 34 33 36 35 38 34 36 35 33 34 31 21 17 13
36 39 37 35 33 31 30 33 38 44 46 51 52 51 54 55 54 53 52 52 50 50 49 48 46 42 38 37 36 36 34 36 35 35 35 34 34 34 29 22 18 16 14
41 34 35 35 37 35 35 36 37 39 43 47 49 51 53 54 52 51 51 50 51 49 49 48 44 42 41 40 41 39 37 37 35 35 36 33 29 24 20 17 16 14 12
40 35 31 36 41 39 38 37 37 40 42 44 46 49 51 53 51 48 47 48 52 51 49 47 45 43 42 41 41 39 36 37 36 34 30 26 24 22 20 18 17 14 12
41 38 34 34 35 39 39 38 37 39 39 41 45 48 50 52 51 49 48 50 52 51 47 45 44 43 40 41 39 37 37 36 35 31 29 27 24 21 18 16 15 14 12
41 40 38 36 36 36 37 38 36 37 39 41 43 44 48 50 51 49 48 50 51 48 48 46 44 41 40 41 39 39 38 33 31 30 27 24 22 20 19 17 16 14 12
42 41 38 34 37 39 41 37 34 35 39 41 42 42 45 47 48 45 45 47 48 47 47 45 43 43 41 39 40 39 35 31 31 29 28 26 24 23 20 17 15 15 14
43 41 39 37 33 34 37 38 37 35 38 40 41 42 45 45 45 45 44 44 43 43 43 42 40 40 39 40 39 36 35 34 33 32 31 28 24 20 19 18 16 17 15
43 40 37 36 35 32 33 33 35 36 37 39 43 43 44 43 44 46 44 42 42 42 40 39 38 39 39 38 35 36 35 34 33 32 29 25 25 24 21 18 15 14 13
40 38 35 33 33 33 31 31 31 32 33 36 39 41 44 46 46 46 45 45 45 44 42 39 40 39 39 37 35 35 33 31 32 30 28 29 27 24 22 18 15 13 11
37 35 34 32 32 31 30 30 28 29 29 33 35 38 40 41 43 44 44 43 44 44 41 41 43 43 42 41 39 37 34 33 32 31 30 29 28 25 21 18 16 14 12
30 29 29 29 29 29 27 27 29 27 24 26 30 34 37 35 38 39 40 44 44 41 41 41 42 44 44 41 39 37 37 35 31 30 30 30 27 23 21 19 16 15 15
26 24 25 25 23 24 25 25 24 24 22 21 23 23 25 25 28 30 31 35 40 40 42 43 45 45 43 39 38 38 38 36 35 34 31 28 26 23 21 19 18 16 15
26 26 25 22 19 18 20 21 21 20 19 21 20 21 23 20 21 23 27 34 43 44 44 45 45 44 42 41 38 39 37 37 37 35 31 29 26 23 20 19 18 18 17
26 25 24 22 19 16 15 15 18 19 18 19 19 20 20 22 24 27 30 32 36 42 44 46 45 45 45 41 41 40 38 39 37 33 31 27 24 20 18 20 21 19 17
30 29 27 25 22 20 17 16 12 10 12 15 17 19 19 23 29 30 32 35 37 39 42 44 43 42 44 40 39 38 39 38 36 32 28 25 20 18 22 23 22 20 18
29 29 29 29 28 26 23 20 17 15 13 12 10 10 14 17 24 28 29 32 35 36 38 39 42 43 38 35 35 36 37 36 32 29 25 21 18 22 26 26 24 22 19
29 29 29 29 29 28 28 27 25 23 20 16 13 10 10 10 13 16 22 25 27 28 28 27 27 30 31 29 30 32 33 30 26 23 19 20 23 29 29 27 25 23 21
28 28 29 29 28 28 27 27 26 24 24 23 20 15 12 9 8 7 9 12 16 19 20 21 23 25 25 27 28 28 26 23 20 18 20 22 28 28 28 27 25 23 22
27 27 28 28 28 28 26 26 25 25 23 22 21 18 15 13 11 7 5 5 9 12 14 17 19 21 23 24 24 25 23 22 23 22 22 27 28 27 26 26 25 24 23
26 26 26 26 26 26 26 26 25 24 23 22 18 16 14 12 10 9 8 6 4 5 9 11 15 19 20 21 23 27 28 28 26 25 24 28 27 28 29 28 27 26 24
Wind_Direction
267 265 258 253 253 252 252 251 252 253 251 250 252 253 251 250 248 245 246 247 247 248 249 251 253 254 255 257 253 250 252 251 254 258 265 260 269 282 274 277 282 281 277
284 266 263 262 256 252 250 251 251 251 252 251 253 253 253 252 251 248 247 246 246 246 248 250 252 252 253 250 251 252 252 252 253 256 259 267 263 275 268 277 281 277 282
305 291 274 261 256 255 253 253 253 253 250 250 250 252 253 253 252 250 249 248 248 248 249 249 251 250 252 247 250 250 251 250 248 251 257 256 277 269 269 277 279 280 284
308 304 295 278 264 256 255 255 253 253 254 253 251 250 252 253 253 252 251 248 248 248 250 250 249 248 251 250 250 250 249 246 247 254 248 262 265 258 268 274 281 284 282
305 301 299 298 286 269 259 257 257 257 255 254 253 252 252 252 251 250 250 247 246 246 246 247 247 248 250 250 248 247 242 244 248 256 243 259 255 258 265 273 276 270 277
305 299 298 300 297 281 270 263 260 258 256 255 252 250 250 250 250 252 251 250 247 245 245 245 245 246 246 245 243 244 246 247 247 243 254 253 257 256 264 267 259 261 268
301 304 300 298 293 289 286 273 264 260 257 255 254 252 250 250 251 250 249 249 246 244 245 244 243 244 244 241 238 241 247 241 248 248 248 253 254 263 261 251 251 252 259
305 301 300 298 294 292 289 284 274 262 256 255 254 253 252 250 250 248 246 244 244 246 245 244 243 243 241 239 236 238 240 245 246 246 250 256 254 250 252 248 244 243 253
311 301 292 291 295 296 290 286 278 267 259 255 252 250 249 250 250 246 243 242 241 242 243 243 243 242 240 239 236 238 242 242 242 248 247 243 242 242 239 239 236 236 236
320 302 290 284 280 285 287 287 282 271 263 259 255 251 249 248 248 245 242 241 240 242 243 243 240 239 238 236 238 240 238 238 247 243 238 238 238 238 234 231 231 231 229
318 313 298 284 281 279 279 282 281 272 266 263 259 252 248 247 247 246 243 244 244 243 242 239 236 235 233 236 238 238 241 244 237 233 232 228 224 223 222 222 229 233 228
313 315 312 302 282 277 278 274 274 272 267 263 258 253 247 245 245 244 240 239 240 240 240 237 240 238 233 233 234 238 238 229 226 224 222 221 220 219 220 220 223 229 231
310 309 312 310 300 284 274 274 275 269 263 260 258 254 250 244 243 242 239 239 237 235 238 238 236 235 235 236 237 231 224 222 220 216 217 218 218 220 218 215 215 221 227
311 311 311 310 307 298 282 275 274 272 267 260 257 253 251 247 240 237 233 229 229 229 227 229 231 234 234 231 224 222 221 218 217 216 214 213 209 208 214 216 212 211 214
314 315 312 310 309 304 294 284 278 273 269 265 260 257 252 247 239 235 231 225 223 225 228 231 224 220 219 217 215 217 212 210 208 209 207 207 207 207 210 207 200 201 207
316 317 317 315 312 306 299 293 282 279 273 259 257 258 257 256 251 243 236 232 231 230 229 222 216 214 215 213 209 208 206 207 208 205 204 208 207 205 201 197 198 203 205
320 317 317 315 314 312 307 300 296 289 283 281 263 250 252 250 252 250 240 237 238 231 221 219 218 217 215 213 211 209 209 209 209 206 205 206 204 198 196 199 203 207 206
330 325 315 313 314 313 310 304 297 291 291 283 276 265 256 251 241 238 236 231 223 222 224 222 221 221 219 215 214 212 213 211 209 207 201 198 198 199 198 201 206 212 209
349 344 336 327 317 313 312 307 299 295 292 281 280 278 259 251 243 232 232 227 221 222 221 224 225 223 217 214 215 216 213 208 206 198 194 196 197 198 200 209 211 212 210
4 2 357 351 345 339 330 319 308 302 297 298 290 284 271 249 235 226 225 227 227 229 227 224 223 222 218 215 215 213 208 207 200 195 194 195 196 200 214 217 215 213 208
16 16 15 13 12 8 360 354 344 321 303 299 299 294 281 262 250 242 231 225 226 228 229 226 228 228 222 217 211 207 201 198 198 196 195 194 198 213 220 215 212 208 206
16 19 22 25 27 25 19 12 9 4 6 353 331 303 269 251 247 246 239 230 229 227 228 230 228 225 223 213 207 202 196 197 195 194 191 204 213 218 214 212 209 207 209
11 12 17 22 26 29 30 29 27 23 20 19 7 355 308 283 257 245 239 237 238 236 234 233 233 227 215 208 206 202 198 196 192 196 213 221 218 216 211 209 208 209 213
9 10 11 14 19 22 24 25 27 31 34 34 31 20 360 342 320 289 254 233 224 220 220 219 213 210 208 205 201 199 196 193 204 221 231 223 222 214 210 209 211 214 217
2 4 8 12 13 13 13 15 16 19 23 31 32 30 23 16 4 351 306 235 214 207 204 202 203 207 205 201 200 198 198 214 222 233 228 226 218 216 216 217 218 218 222
359 1 2 3 5 6 7 8 8 7 9 12 16 10 10 14 12 5 354 337 287 236 216 204 206 203 200 200 203 211 221 227 229 229 223 220 219 221 222 221 221 222 224